Tyler, TX

11:35 AM CDT on April 26, 2018 (GMT -0500)
Tyler Pounds

Weather History for KTYR - May, 2012

Change the Weather History Date:

Wednesday, May 2, 2012

  Actual Average Record
Temperature  
Mean Temperature 78 °F 69 °F  
Max Temperature 88 °F 79 °F 93 °F (1943)
Min Temperature 68 °F 59 °F 40 °F (1976)
Degree Days  
Heating Degree Days 0 1  
Month to date heating degree days 0 2  
Since 1 July heating degree days 1659 2264  
Cooling Degree Days 13 5  
Month to date cooling degree days 27 10  
Year to date cooling degree days 323 122  
Growing Degree Days 28 (Base 50)    
Moisture  
Dew Point 65 °F    
Average Humidity 68    
Maximum Humidity 90    
Minimum Humidity 46    
Precipitation  
Precipitation 0.00 in 0.16 in 5.78 in (1944)
Month to date precipitation 0.00 0.31  
Year to date precipitation 14.37 14.47  
Snow  
Snow 0.00 in - - ()
Month to date snowfall 0.0  
Since 1 July snowfall 0.0  
Snow Depth 0.00 in    
Sea Level Pressure  
Sea Level Pressure 29.90 in    
Wind  
Wind Speed 8 mph (SSE)    
Max Wind Speed 15 mph    
Max Gust Speed 21 mph    
Visibility 9 miles    
Events      
T = Trace of Precipitation, MM = Missing Value Source: NWS Daily Summary

Daily Weather History Graph

Daily Weather History Graph

Search for Another Location

Airport or City:

Astronomy

May. 02, 2012 Rise Set
Actual Time 6:33 AM CDT 8:03 PM CDT
Civil Twilight 6:07 AM CDT 8:30 PM CDT
Nautical Twilight 5:36 AM CDT 9:01 PM CDT
Astronomical Twilight 5:03 AM CDT 9:34 PM CDT
Moon 4:28 PM CDT (5/2) 3:50 AM CDT (5/2)
Length of Visible Light 14h 22m
Length of Day
13h 30m
Waxing Gibbous, 83% of the Moon is Illuminated
May 2
Waxing Gibbous
May 5
Full
May 12
Last Quarter
May 20
New
May 28
First Quarter

Hourly Weather History & Observations

Time (CDT) Temp. Heat Index Dew Point Humidity Pressure Visibility Wind Dir Wind Speed Gust Speed Precip Events Conditions
12:53 AM 73.0 °F - 66.0 °F 79% 29.90 in 10.0 mi SSW 11.5 mph - N/A   Clear
1:53 AM 71.1 °F - 66.0 °F 84% 29.88 in 10.0 mi South 9.2 mph - N/A   Clear
2:53 AM 69.1 °F - 66.0 °F 90% 29.88 in 9.0 mi South 5.8 mph - N/A   Clear
3:53 AM 69.1 °F - 66.0 °F 90% 29.87 in 9.0 mi South 6.9 mph - N/A   Clear
4:37 AM 69.8 °F - 66.2 °F 88% 29.90 in 8.0 mi SSE 6.9 mph - N/A   Mostly Cloudy
4:53 AM 69.1 °F - 66.0 °F 90% 29.87 in 8.0 mi SSE 8.1 mph - N/A   Overcast
5:25 AM 69.8 °F - 66.2 °F 88% 29.89 in 9.0 mi South 12.7 mph - N/A   Overcast
5:53 AM 70.0 °F - 66.0 °F 87% 29.88 in 9.0 mi South 9.2 mph - N/A   Overcast
6:25 AM 69.8 °F - 66.2 °F 88% 29.91 in 9.0 mi South 15.0 mph 19.6 mph N/A   Overcast
6:53 AM 70.0 °F - 66.0 °F 87% 29.91 in 8.0 mi South 9.2 mph - N/A   Overcast
7:08 AM 69.8 °F - 66.2 °F 88% 29.93 in 8.0 mi South 6.9 mph - N/A   Overcast
7:53 AM 71.1 °F - 66.0 °F 84% 29.92 in 8.0 mi SSE 8.1 mph - N/A   Overcast
8:53 AM 72.0 °F - 66.0 °F 81% 29.94 in 9.0 mi South 5.8 mph - N/A   Overcast
9:53 AM 73.9 °F - 66.0 °F 76% 29.94 in 9.0 mi South 10.4 mph - N/A   Overcast
10:53 AM 75.0 °F - 66.0 °F 73% 29.95 in 9.0 mi South 10.4 mph - N/A   Overcast
11:31 AM 78.8 °F - 64.4 °F 61% 29.97 in 10.0 mi South 10.4 mph - N/A   Overcast
11:53 AM 75.9 °F - 64.9 °F 69% 29.96 in 10.0 mi South 9.2 mph - N/A   Overcast
12:05 PM 78.8 °F - 64.4 °F 61% 29.97 in 10.0 mi South 9.2 mph - N/A   Overcast
12:53 PM 80.1 °F 82.1 °F 66.0 °F 62% 29.94 in 10.0 mi SSE 8.1 mph - N/A   Overcast
1:53 PM 82.0 °F 83.8 °F 64.9 °F 56% 29.92 in 10.0 mi South 6.9 mph - N/A   Overcast
2:53 PM 86.0 °F 87.3 °F 64.0 °F 48% 29.90 in 10.0 mi South 10.4 mph - N/A   Partly Cloudy
3:53 PM 84.9 °F 85.4 °F 62.1 °F 46% 29.87 in 10.0 mi SE 8.1 mph - N/A   Mostly Cloudy
4:53 PM 88.0 °F 89.3 °F 64.0 °F 45% 29.85 in 10.0 mi SSE 10.4 mph - N/A   Mostly Cloudy
5:53 PM 84.9 °F 85.9 °F 63.0 °F 48% 29.84 in 10.0 mi South 8.1 mph - N/A   Scattered Clouds
6:53 PM 84.9 °F 86.1 °F 64.0 °F 49% 29.83 in 10.0 mi SE 8.1 mph - N/A   Partly Cloudy
7:53 PM 81.0 °F 82.7 °F 64.9 °F 58% 29.84 in 10.0 mi SE 6.9 mph - N/A   Clear
8:53 PM 75.9 °F - 64.9 °F 69% 29.86 in 10.0 mi SE 6.9 mph - N/A   Clear
9:53 PM 75.0 °F - 64.9 °F 71% 29.88 in 10.0 mi SSE 5.8 mph - N/A   Clear
10:53 PM 73.0 °F - 64.9 °F 76% 29.89 in 10.0 mi SE 4.6 mph - N/A   Clear
11:53 PM 72.0 °F - 64.9 °F 78% 29.91 in 10.0 mi SE 5.8 mph - N/A   Clear